Location: Zagreb
(45.8000°N, 16.0000°E)
Time: 15:12:39
(UTC+02:00)

Tiros 1 despin weight - Pass Details

Date: 12 August 2022
Orbit: 590 x 639 km, 48.2° (Epoch: 23 September)

Event Time Altitude Azimuth Distance (km) Brightness Sun altitude
Rises 18:26:09 0° 288° (WNW) 2,825 ? 16.6°
Reaches altitude 10° 18:28:32 10° 281° (W) 1,919 ? 16.2°
Maximum altitude 18:32:38 39° 212° (SSW) 884 ? 15.5°
Drops below altitude 10° 18:36:43 10° 144° (SE) 1,912 ? 14.8°
Sets 18:39:05 0° 136° (SE) 2,814 ? 14.4°
